When you browse on this site, cookies collect data to enhance your experience and personalize the content and advertising you see.
Visit our Privacy Policy to learn more. By continuing to use the site, you agree to this use of cookies and data.
  • In Hungary
  • List of Countries
  • For 7 days
  • Water Temperature
  • Satellite Maps
  • Weather Map
  • News
  • Weather Widgets
  • user-avatar
    Login

    Hourly Weather Palmas

    Today, 17 November, Saturday

    Time Temperature Precipitation Wind Pressure Humidity
    00:00 +19°C° 0 mm 4 mps 670 mmHg 79%
    01:00 +18°C° 0 mm 4 mps 670 mmHg 79%
    02:00 +17°C° 0 mm 4 mps 670 mmHg 79%
    03:00 +16°C° 0 mm 3 mps 669 mmHg 79%
    04:00 +16°C° 0 mm 3 mps 669 mmHg 79%
    05:00 +16°C° 0 mm 3 mps 669 mmHg 79%
    06:00 +14°C° 0 mm 3 mps 669 mmHg 79%
    07:00 +17°C° 0 mm 4 mps 670 mmHg 71%
    08:00 +20°C° 0 mm 4 mps 670 mmHg 62%
    09:00 +22°C° 0 mm 4 mps 671 mmHg 53%
    10:00 +25°C° 0 mm 4 mps 671 mmHg 49%
    11:00 +27°C° 0 mm 4 mps 671 mmHg 44%
    12:00 +29°C° 0 mm 3 mps 671 mmHg 40%
    13:00 +29°C° 0 mm 3 mps 671 mmHg 41%
    14:00 +30°C° 0 mm 3 mps 670 mmHg 42%
    15:00 +30°C° 0 mm 3 mps 670 mmHg 42%
    16:00 +29°C° 0 mm 2 mps 669 mmHg 50%
    17:00 +28°C° 0 mm 2 mps 668 mmHg 57%
    18:00 +26°C° 0 mm 1 mps 668 mmHg 65%
    19:00 +25°C° 0.3 mm 1 mps 668 mmHg 73%
    20:00 +23°C° 0.3 mm 2 mps 668 mmHg 81%
    21:00 +20°C° 0.3 mm 2 mps 668 mmHg 89%
    22:00 +20°C° 0 mm 2 mps 668 mmHg 89%
    23:00 +20°C° 0 mm 2 mps 668 mmHg 89%

    Tomorrow, 18 November, Sunday

    Time Temperature Precipitation Wind Pressure Humidity
    00:00 +20°C° 0 mm 3 mps 668 mmHg 89%
    01:00 +20°C° 0 mm 3 mps 668 mmHg 88%
    02:00 +20°C° 0 mm 3 mps 667 mmHg 87%
    03:00 +20°C° 0 mm 3 mps 667 mmHg 86%
    04:00 +20°C° 0.6 mm 3 mps 667 mmHg 89%
    05:00 +19°C° 0.6 mm 2 mps 667 mmHg 91%
    06:00 +19°C° 0.6 mm 2 mps 667 mmHg 93%
    07:00 +19°C° 5.8 mm 2 mps 667 mmHg 94%
    08:00 +19°C° 5.8 mm 2 mps 668 mmHg 95%
    09:00 +20°C° 5.8 mm 3 mps 668 mmHg 96%
    10:00 +19°C° 3.8 mm 2 mps 668 mmHg 97%
    11:00 +19°C° 3.8 mm 2 mps 668 mmHg 97%
    12:00 +19°C° 3.8 mm 2 mps 669 mmHg 97%
    13:00 +19°C° 0.3 mm 2 mps 668 mmHg 95%
    14:00 +20°C° 0.3 mm 2 mps 668 mmHg 93%
    15:00 +21°C° 0.3 mm 1 mps 668 mmHg 91%
    16:00 +21°C° 0.1 mm 1 mps 668 mmHg 92%
    17:00 +20°C° 0.1 mm 1 mps 667 mmHg 94%
    18:00 +20°C° 0.1 mm 1 mps 667 mmHg 96%
    19:00 +20°C° 0 mm 1 mps 668 mmHg 96%
    20:00 +19°C° 0 mm 1 mps 668 mmHg 97%
    21:00 +19°C° 0 mm 1 mps 668 mmHg 98%
    22:00 +19°C° 0 mm 1 mps 668 mmHg 98%
    23:00 +18°C° 0 mm 1 mps 669 mmHg 98%

    Day after tomorrow, 19 November, Monday

    Time Temperature Precipitation Wind Pressure Humidity
    00:00 +17°C° 0 mm 2 mps 669 mmHg 98%
    01:00 +17°C° 0 mm 2 mps 669 mmHg 98%
    02:00 +17°C° 0 mm 2 mps 668 mmHg 98%
    03:00 +16°C° 0 mm 2 mps 668 mmHg 98%
    04:00 +16°C° 0 mm 2 mps 668 mmHg 98%
    05:00 +16°C° 0 mm 1 mps 668 mmHg 98%
    06:00 +15°C° 0 mm 1 mps 669 mmHg 97%
    07:00 +19°C° 0 mm 1 mps 669 mmHg 88%
    08:00 +20°C° 0 mm 2 mps 670 mmHg 78%
    09:00 +23°C° 0 mm 2 mps 671 mmHg 68%
    10:00 +25°C° 0 mm 2 mps 671 mmHg 61%
    11:00 +27°C° 0 mm 1 mps 671 mmHg 54%
    12:00 +29°C° 0 mm 1 mps 671 mmHg 46%
    13:00 +29°C° 0 mm 1 mps 671 mmHg 46%
    14:00 +29°C° 0 mm 2 mps 670 mmHg 46%
    15:00 +29°C° 0 mm 2 mps 669 mmHg 46%
    16:00 +27°C° 0 mm 2 mps 669 mmHg 54%
    17:00 +25°C° 0 mm 2 mps 668 mmHg 62%
    18:00 +23°C° 0 mm 2 mps 668 mmHg 70%
    19:00 +20°C° 0 mm 2 mps 668 mmHg 75%
    20:00 +18°C° 0 mm 2 mps 668 mmHg 81%
    21:00 +16°C° 0 mm 2 mps 669 mmHg 86%
    22:00 +16°C° 0 mm 3 mps 669 mmHg 86%
    23:00 +14°C° 0 mm 3 mps 669 mmHg 86%

    20 November, Tuesday

    Time Temperature Precipitation Wind Pressure Humidity
    00:00 +13°C° 0 mm 3 mps 669 mmHg 86%
    01:00 +13°C° 0 mm 3 mps 669 mmHg 86%
    02:00 +12°C° 0 mm 3 mps 668 mmHg 86%
    03:00 +12°C° 0 mm 3 mps 668 mmHg 86%
    04:00 +13°C° 0 mm 2 mps 668 mmHg 87%
    05:00 +13°C° 0 mm 2 mps 668 mmHg 87%
    06:00 +13°C° 0 mm 2 mps 669 mmHg 88%
    07:00 +15°C° 0 mm 2 mps 670 mmHg 79%
    08:00 +18°C° 0 mm 2 mps 671 mmHg 71%
    09:00 +20°C° 0 mm 2 mps 671 mmHg 62%
    10:00 +24°C° 0 mm 2 mps 672 mmHg 56%
    11:00 +26°C° 0 mm 1 mps 672 mmHg 49%
    12:00 +28°C° 0 mm 1 mps 672 mmHg 42%
    13:00 +28°C° 0 mm 1 mps 672 mmHg 41%
    14:00 +29°C° 0 mm 1 mps 671 mmHg 40%
    15:00 +29°C° 0 mm 2 mps 670 mmHg 39%
    16:00 +28°C° 0 mm 1 mps 670 mmHg 47%
    17:00 +26°C° 0 mm 1 mps 669 mmHg 54%
    18:00 +25°C° 0 mm 1 mps 669 mmHg 62%
    19:00 +23°C° 0 mm 2 mps 669 mmHg 69%
    20:00 +20°C° 0 mm 2 mps 669 mmHg 75%
    21:00 +18°C° 0 mm 2 mps 670 mmHg 82%
    22:00 +17°C° 0 mm 3 mps 670 mmHg 83%
    23:00 +17°C° 0 mm 3 mps 670 mmHg 85%

    21 November, Wednesday

    Time Temperature Precipitation Wind Pressure Humidity
    00:00 +16°C° 0 mm 3 mps 670 mmHg 86%
    01:00 +16°C° 0 mm 3 mps 670 mmHg 86%
    02:00 +14°C° 0 mm 3 mps 669 mmHg 86%
    03:00 +15°C° 0 mm 2 mps 669 mmHg 86%
    04:00 +15°C° 0 mm 2 mps 669 mmHg 88%
    05:00 +15°C° 0 mm 2 mps 670 mmHg 89%
    06:00 +15°C° 0 mm 2 mps 670 mmHg 90%
    07:00 +17°C° 0 mm 2 mps 670 mmHg 82%
    08:00 +19°C° 0 mm 2 mps 671 mmHg 75%
    09:00 +21°C° 0 mm 2 mps 672 mmHg 68%
    10:00 +24°C° 0 mm 2 mps 672 mmHg 62%
    11:00 +25°C° 0 mm 2 mps 672 mmHg 56%
    12:00 +27°C° 0 mm 2 mps 672 mmHg 50%
    13:00 +28°C° 0 mm 2 mps 671 mmHg 49%
    14:00 +28°C° 0 mm 2 mps 670 mmHg 48%
    15:00 +28°C° 0 mm 1 mps 670 mmHg 47%
    16:00 +27°C° 0 mm 1 mps 669 mmHg 52%
    17:00 +26°C° 0 mm 1 mps 669 mmHg 58%
    18:00 +25°C° 0 mm 1 mps 668 mmHg 64%
    19:00 +23°C° 0 mm 2 mps 668 mmHg 69%
    20:00 +20°C° 0 mm 2 mps 668 mmHg 75%
    21:00 +19°C° 0 mm 2 mps 669 mmHg 80%
    22:00 +18°C° 0 mm 3 mps 669 mmHg 82%
    23:00 +18°C° 0 mm 3 mps 669 mmHg 85%

    22 November, Thursday

    Time Temperature Precipitation Wind Pressure Humidity
    00:00 +17°C° 0 mm 3 mps 669 mmHg 87%
    01:00 +17°C° 0 mm 3 mps 668 mmHg 88%
    02:00 +17°C° 0 mm 3 mps 668 mmHg 88%
    03:00 +16°C° 0 mm 3 mps 668 mmHg 88%
    04:00 +16°C° 0 mm 2 mps 668 mmHg 89%
    05:00 +16°C° 0 mm 2 mps 668 mmHg 89%
    06:00 +16°C° 0 mm 2 mps 669 mmHg 90%
    07:00 +18°C° 0 mm 2 mps 669 mmHg 82%
    08:00 +20°C° 0 mm 2 mps 670 mmHg 74%
    09:00 +23°C° 0 mm 2 mps 671 mmHg 66%
    10:00 +25°C° 0 mm 2 mps 670 mmHg 61%
    11:00 +27°C° 0 mm 1 mps 670 mmHg 55%
    12:00 +29°C° 0 mm 1 mps 670 mmHg 49%
    13:00 +29°C° 0.1 mm 1 mps 670 mmHg 50%
    14:00 +28°C° 0.1 mm 1 mps 669 mmHg 50%
    15:00 +26°C° 0.1 mm 0 mps 668 mmHg 50%
    16:00 +25°C° 0.2 mm 0 mps 668 mmHg 57%
    17:00 +24°C° 0.2 mm 0 mps 668 mmHg 63%
    18:00 +23°C° 0.2 mm 0 mps 668 mmHg 70%
    19:00 +24°C° 0.2 mm 1 mps 667 mmHg 76%
    20:00 +22°C° 0.2 mm 1 mps 667 mmHg 82%
    21:00 +20°C° 0.2 mm 1 mps 667 mmHg 88%
    22:00 +19°C° 0 mm 1 mps 667 mmHg 90%
    23:00 +18°C° 0 mm 2 mps 668 mmHg 91%
    Show more